Tracking 29892 objects as of 21-Nov-2024
HD Live streaming from Space Station
objects crossing your sky now

STARLINK-31211

Track STARLINK-31211 now!
10-day predictions
STARLINK-31211 is classified as:


NORAD ID: 59031
Int'l Code: 2024-038J
Perigee: 494.3 km
Apogee: 495.9 km
Inclination: 43.0 °
Period: 94.4 minutes
Semi major axis: 6866 km
RCS: Unknown
Launch date: February 25, 2024
Source: United States (US)
Launch site: AIR FORCE EASTERN TEST RANGE (AFETR)
Your satellite tracking list
Your tracking list is empty




NASA's NSSDC Master Catalog

Two Line Element Set (TLE):
1 59031U 24038J   24325.95660668  .00010634  00000-0  41549-3 0  9997
2 59031  43.0006 178.3804 0001178 284.9735  75.0986 15.25933110 42257
Source of the keplerian elements: AFSPC